COSMOS 1275 DEB, 39939

Orbit data source: Space-Track

COSMOS 1275 DEB, 39939 is space debris in LEO originally from a launch on Thu, 04 Jun 1981 UTC launched from the Plesetsk Missile And Space Complex (PKMTR). Debris objects in space refer to the collection of defunct objects orbiting the Earth. Examples of debris include non-operational satellites, rocket bodies, and fragments generated from explosions, collisions, or faulty payload assembly.

Loading next visibility...
Identifier
39939, 1981-053MZ
Orbit
LEO
Country
Flag of CISCIS
Related business
Manufacturer
Unknown
Mission
Spacecraft
Bus & Motor
Unknown
Mass
Unknown
Launch date (UTC)
1981-06-04 (45 years ago)
Launch vehicle
Unknown
Launch site
Plesetsk Missile And Space Complex (PKMTR)
Object type
Payload
Rocket body
Debris
Shape & HBR
Unknown shape, 0.1 m
Radar Cross Section
Small (<0.1 m²)

Expand to show TLE details & history
Last TLE update: 6 days ago

TLE from 6 days ago
0 COSMOS 1275 DEB
1 39939U 81053MZ  26032.15198829  .00000743  00000-0  70568-3 0  9999
2 39939  82.8181 195.3715 0071436 176.7930 183.3701 13.78513821586009
Epoch: 2026-02-01T03:38Z
TLE epoch observation values (Epoch: 2026-02-01T03:38:51.788Z)
Latitude
-0.00002°
Longitude
9.28998°
Altitude
1,024.471 km
Speed
7.313 km/s
True Right ascension
13h 01m 29s
True Declination
0° 00' 00"
Sunlit
Object was in daylight at epoch
Visualization orbit readout
Latitude
Unknown
Longitude
Unknown
Altitude
Unknown
Speed
Unknown
Apparent Right ascension
Unknown
Apparent Declination
Unknown
Sunlit
N/A
Visualization observer readout
Local Sidereal Time
18:09:04
Azimuth
Unknown
Elevation
Unknown
Doppler factor
Unknown
Orbital elements
Apogee altitude
1,018.777 km
Perigee altitude
913.845 km
Semi-major axis
7,344.448 km
Eccentricity
0.00714
Inclination
82.8181°
RAAN
195.3715°
Arg. of periapsis
176.793°
True anomaly
183.3224°
Mean anomaly
183.3701°
Eccentric anomaly
183.34621°
Mean motion
3.44829 °/min
Orbital period
104.4 mins
BSTAR
0.00070568
Loading maneuver chart data...
Computing Atmospheric mass density...
Loading historical data...
Loading historical data...
Loading historical data...
Loading historical data...
Loading historical data...
Loading historical data...
Loading historical data...

Documentation

Showing up to 5 results
|